CW9669 Weather Reports


Display with metric or nautical units.
time (UTC)temp
F
wind
direction
speed
MPH
gust
MPH
rain 1hr
in
rain 24hr
in
rain mn
in
humidity
%
barometer
mb
20260904024745 56 271 0.0 0.0 0.00 0.13 0.13 90 1008.0
20260904023746 56 270 0.0 0.0 0.00 0.13 0.13 90 1008.0
20260904022743 56 253 0.0 0.0 0.00 0.13 0.13 90 1008.0
20260904021743 57 251 0.0 0.0 0.00 0.14 0.13 90 1008.1
20260904021230 57 251 0.0 0.0 0.01 0.14 0.13 90 1008.2
20260904015752 57 246 0.0 1.0 0.01 0.14 0.13 90 1008.3
20260904014743 57 223 0.0 0.0 0.01 0.14 0.13 90 1008.2
20260904014234 57 243 0.0 1.0 0.01 0.15 0.13 90 1008.3
20260904013322 57 213 0.0 0.0 0.01 0.15 0.13 89 1008.3
20260904012742 57 213 0.0 0.0 0.01 0.15 0.13 89 1008.3
20260904011745 57 213 0.0 0.0 0.01 0.15 0.13 88 1008.3
20260904010738 58 240 0.0 0.0 0.00 0.14 0.12 87 1008.3
20260904005736 58 290 0.0 0.0 0.00 0.15 0.12 86 1008.3
20260904004738 58 161 0.0 0.0 0.00 0.24 0.12 86 1008.3
20260904004209 58 224 0.0 0.0 0.00 0.33 0.12 86 1008.3
20260904002735 58 150 0.0 1.0 0.00 0.36 0.12 87 1008.4
20260904001741 58 147 0.0 1.0 0.00 0.38 0.12 86 1008.3
20260904000745 58 149 0.0 2.0 0.00 0.39 0.12 86 1008.4
20260903235738 58 166 1.0 6.0 0.00 0.41 0.12 86 1008.3
20260903234735 57 143 0.0 2.0 0.00 0.41 0.12 87 1008.3
20260903233730 57 199 0.0 5.0 0.00 0.41 0.12 87 1008.4
20260903232732 57 144 0.0 2.0 0.01 0.41 0.12 87 1008.5
20260903231729 57 200 0.0 2.0 0.01 0.41 0.12 87 1008.7
20260903230730 56 261 0.0 2.0 0.02 0.41 0.12 87 1008.6
20260903225731 56 234 0.0 3.0 0.10 0.41 0.12 87 1008.7
20260903224729 56 176 0.0 2.0 0.11 0.42 0.12 86 1008.8
20260903223729 56 199 0.0 4.0 0.11 0.42 0.12 84 1009.1
20260903223209 56 213 0.0 2.0 0.10 0.42 0.11 87 1009.1
20260903221730 56 206 0.0 6.0 0.10 0.43 0.11 85 1009.4
20260903220732 59 281 1.0 7.0 0.09 0.42 0.09 80 1009.4
20260903220650 64 294 0.0 7.0 0.01 0.36 0.02 66 1008.8
20260903214729 65 211 1.0 8.0 0.00 0.36 0.01 57 1008.1
20260903213729 66 221 2.0 10.0 0.00 0.36 0.01 56 1007.9
20260903212733 67 139 1.0 7.0 0.00 0.36 0.01 56 1007.8
20260903211730 67 227 1.0 7.0 0.00 0.36 0.01 55 1007.9
20260903211216 67 203 1.0 7.0 0.00 0.36 0.01 55 1007.9
20260903205728 66 202 1.0 10.0 0.00 0.36 0.01 56 1008.1
20260903204730 66 246 1.0 9.0 0.00 0.37 0.01 59 1008.2
20260903203728 66 256 1.0 11.0 0.00 0.38 0.01 58 1008.4
20260903203203 65 171 3.0 11.0 0.00 0.38 0.01 57 1008.5
20260903201725 67 175 2.0 12.0 0.00 0.38 0.01 60 1008.6
20260903201651 66 298 3.0 9.0 0.00 0.38 0.01 58 1008.7
20260903195724 65 217 2.0 10.0 0.00 0.38 0.01 62 1008.7
20260903194724 63 219 2.0 8.0 0.00 0.38 0.01 65 1009.1
20260903194213 63 167 2.0 7.0 0.00 0.38 0.01 67 1009.2
20260903193646 62 217 2.0 10.0 0.00 0.39 0.01 69 1009.4
20260903191724 62 76 2.0 10.0 0.00 0.39 0.01 69 1009.5
20260903190725 61 250 1.0 8.0 0.00 0.39 0.01 72 1009.5
20260903185720 61 216 2.0 8.0 0.00 0.39 0.01 73 1009.5
20260903185646 61 146 1.0 5.0 0.00 0.40 0.01 74 1009.7
20260903183720 60 151 1.0 3.0 0.00 0.40 0.01 76 1009.7
20260903182716 60 213 1.0 5.0 0.00 0.41 0.01 77 1009.7
20260903181715 60 189 1.0 4.0 0.00 0.41 0.01 81 1009.6
20260903180712 60 202 1.0 5.0 0.00 0.41 0.01 79 1009.6
20260903175712 60 224 0.0 4.0 0.00 0.41 0.01 81 1009.5
20260903174712 59 164 1.0 3.0 0.00 0.42 0.01 84 1009.6
20260903173711 58 200 1.0 4.0 0.00 0.44 0.01 84 1009.6
20260903172715 58 258 1.0 5.0 0.00 0.48 0.01 83 1009.6
20260903171712 58 202 1.0 5.0 0.00 0.52 0.01 84 1009.3
20260903170712 58 186 1.0 6.0 0.00 0.55 0.01 85 1009.4
20260903165712 57 204 1.0 4.0 0.00 0.58 0.01 88 1009.5
20260903164713 56 267 1.0 5.0 0.00 0.59 0.01 89 1009.4
20260903163717 56 173 1.0 4.0 0.00 0.59 0.01 89 1009.5
20260903162706 56 177 0.0 3.0 0.00 0.59 0.01 90 1009.6
20260903162621 55 235 0.0 1.0 0.00 0.60 0.01 91 1009.7
20260903160707 55 324 0.0 1.0 0.00 0.61 0.01 91 1009.7
20260903155707 55 119 0.0 1.0 0.00 0.63 0.01 91 1009.7
20260903154706 55 148 1.0 5.0 0.00 0.63 0.01 91 1009.7
20260903153706 55 220 1.0 3.0 0.00 0.63 0.01 91 1009.8
20260903152712 54 252 1.0 4.0 0.00 0.63 0.01 92 1009.9
20260903151706 54 261 1.0 5.0 0.00 0.63 0.01 93 1009.8
20260903150706 53 219 0.0 1.0 0.00 0.63 0.01 94 1009.9
20260903145706 53 173 0.0 1.0 0.00 0.63 0.01 94 1009.9
20260903144703 53 180 0.0 2.0 0.00 0.63 0.01 93 1009.9
20260903143704 53 188 0.0 1.0 0.00 0.63 0.01 93 1009.8
20260903142704 53 126 0.0 2.0 0.00 0.63 0.01 93 1009.8
20260903141702 53 237 1.0 5.0 0.00 0.63 0.01 93 1009.6
20260903140702 53 220 1.0 5.0 0.00 0.63 0.01 93 1009.6
20260903135658 53 221 2.0 4.0 0.00 0.63 0.01 94 1009.5
20260903134658 53 173 1.0 7.0 0.00 0.63 0.01 94 1009.5
20260903133918 53 144 1.0 3.0 0.00 0.63 0.01 94 1009.4
20260903133819 53 264 0.0 3.0 0.01 0.63 0.01 93 1009.5
20260903133723 53 173 1.0 3.0 0.00 0.63 0.01 94 1009.5
20260903131836 53 225 1.0 4.0 0.00 0.63 0.01 94 1009.5
20260903125655 53 208 1.0 2.0 0.01 0.63 0.01 93 1009.6
20260903125141 53 248 1.0 5.0 0.01 0.63 0.01 93 1009.6
20260903123657 53 215 1.0 3.0 0.01 0.63 0.01 93 1009.7
20260903122656 53 217 0.0 2.0 0.01 0.63 0.01 93 1009.6
20260903121658 53 205 0.0 2.0 0.01 0.63 0.01 93 1009.7
20260903120656 53 271 1.0 3.0 0.00 0.62 0.00 93 1010.0
20260903115657 53 186 0.0 2.0 0.00 0.62 0.00 93 1009.8
20260903114657 53 173 0.0 3.0 0.00 0.62 0.00 93 1009.8
20260903113657 53 217 0.0 0.0 0.00 0.62 0.00 93 1009.7
20260903112656 53 217 0.0 3.0 0.00 0.62 0.00 92 1009.7
20260903112141 53 110 0.0 3.0 0.00 0.62 0.00 92 1009.8
20260903110656 53 233 1.0 6.0 0.00 0.62 0.00 92 1009.6
20260903105656 53 242 1.0 7.0 0.00 0.62 0.00 93 1009.5
20260903104701 53 80 0.0 4.0 0.00 0.62 0.00 93 1009.5
20260903103655 53 230 0.0 3.0 0.00 0.62 0.00 93 1009.7
20260903102652 53 226 0.0 1.0 0.00 0.62 0.00 93 1009.8
20260903101651 53 227 0.0 4.0 0.00 0.62 0.00 93 1009.7
20260903100652 53 169 1.0 5.0 0.00 0.62 0.00 93 1009.7
20260903095652 53 234 0.0 3.0 0.00 0.62 0.00 94 1009.8
20260903094650 53 232 0.0 2.0 0.00 0.62 0.00 94 1009.9
20260903093649 53 192 0.0 3.0 0.00 0.62 0.00 94 1010.0
20260903092649 53 74 0.0 1.0 0.00 0.62 0.00 94 1010.0
20260903091650 53 241 0.0 2.0 0.00 0.62 0.00 94 1010.1
20260903090649 54 207 0.0 3.0 0.00 0.62 0.00 94 1010.1
20260903085650 54 202 0.0 4.0 0.00 0.62 0.00 94 1010.2
20260903084649 54 208 1.0 4.0 0.00 0.62 0.00 94 1010.1
20260903083648 54 196 1.0 4.0 0.00 0.62 0.00 94 1010.1
20260903082649 54 213 1.0 4.0 0.00 0.62 0.00 95 1010.1
20260903081647 54 217 0.0 3.0 0.00 0.62 0.00 95 1010.3
20260903080653 54 232 1.0 3.0 0.00 0.62 0.00 95 1010.3
20260903075701 53 230 0.0 3.0 0.00 0.62 0.00 96 1010.2
20260903074643 53 198 0.0 3.0 0.00 0.62 0.00 96 1010.4
20260903074140 53 38 0.0 1.0 0.00 0.62 0.00 95 1010.3
20260903072642 53 281 0.0 0.0 0.00 0.62 0.00 95 1010.4
20260903071643 53 177 0.0 4.0 0.00 0.62 0.00 95 1010.2
20260903071233 54 234 0.0 3.0 0.00 0.62 0.62 95 1010.2
20260903071110 53 192 0.0 4.0 0.00 0.62 0.00 95 1010.3
20260903065116 53 234 0.0 3.0 0.00 0.62 0.62 95 1010.2
20260903063642 53 144 0.0 0.0 0.00 0.62 0.62 95 1010.2
20260903062641 54 157 0.0 3.0 0.00 0.62 0.62 95 1010.2
20260903061644 54 227 0.0 2.0 0.00 0.62 0.62 95 1010.3
20260903060639 54 219 0.0 2.0 0.00 0.62 0.62 95 1010.2
20260903055640 54 215 0.0 2.0 0.00 0.62 0.62 95 1010.2
20260903054639 54 218 0.0 2.0 0.00 0.62 0.62 95 1010.1
20260903054126 54 101 0.0 0.0 0.00 0.62 0.62 95 1010.1
20260903052640 54 84 0.0 0.0 0.00 0.62 0.62 95 1010.3
20260903051639 55 84 0.0 0.0 0.00 0.62 0.62 95 1010.3
20260903050639 55 84 0.0 0.0 0.00 0.62 0.62 95 1010.2
20260903050123 55 188 0.0 0.0 0.00 0.62 0.62 95 1010.2
20260903044641 55 188 0.0 0.0 0.00 0.62 0.62 94 1010.1
20260903043641 55 216 0.0 0.0 0.00 0.62 0.62 94 1010.1
20260903043120 55 216 0.0 0.0 0.00 0.62 0.62 94 1010.1
20260903041640 55 216 0.0 0.0 0.00 0.62 0.62 94 1009.9
20260903040640 56 202 0.0 1.0 0.00 0.62 0.62 94 1009.8
20260903040117 56 196 0.0 0.0 0.00 0.62 0.62 94 1009.8
20260903034638 56 196 0.0 0.0 0.00 0.62 0.62 93 1009.5
20260903033639 57 196 0.0 1.0 0.00 0.62 0.62 93 1009.4
20260903032635 57 228 0.0 1.0 0.00 0.62 0.62 93 1009.2
20260903032111 57 229 0.0 1.0 0.01 0.62 0.62 93 1009.1
20260903030635 58 142 0.0 2.0 0.01 0.62 0.62 92 1009.1
20260903025635 58 206 0.0 1.0 0.01 0.62 0.62 92 1009.1